Terminal Aerodrome Forecast
Issued by NWS Lake Charles, LA

Home | Current Version | Previous Version | Text Only | Print | Product List | Glossary On
Versions: 1 2 3 4 5 6 7 8 9 10 11 12 13 14 15 16 17
000
FTUS44 KLCH 171200 AAA
TAFAEX
TAF AMD
KAEX 171227Z 1712/1812 00000KT 1/4SM FG VV002
      TEMPO 1712/1713 4SM BR BKN007
     FM171400 12005KT P6SM SCT007 BKN250
     FM171800 12006KT P6SM VCTS SCT050CB BKN120
     FM180200 VRB03KT P6SM BKN250=

USA.gov is the U.S. government's official web portal to all federal, state and local government web resources and services.